Nogales, AZ

11:36 PM MST on January 18, 2018 (GMT -0700)
Nogales International

Weather History for KOLS - January, 2014

Change the Weather History Date:

Saturday, January 11, 2014

  Actual Average (KFHU) Record (KFHU)
Temperature  
Mean Temperature 52 °F -  
Max Temperature 72 °F 59 °F 75 °F (1990)
Min Temperature 32 °F 37 °F 26 °F (1987)
Degree Days  
Heating Degree Days 13    
Growing Degree Days 2 (Base 50)    
Moisture  
Dew Point 21 °F    
Average Humidity 38    
Maximum Humidity 64    
Minimum Humidity 14    
Precipitation  
Precipitation 0.00 in - - ()
Sea Level Pressure  
Sea Level Pressure 30.08 in    
Wind  
Wind Speed 3 mph (SSE)    
Max Wind Speed 7 mph    
Max Gust Speed -    
Visibility 10 miles    
Events      
Averages and records for this station are not official NWS values.
T = Trace of Precipitation, MM = Missing Value Source: NWS Daily Summary

Daily Weather History Graph

Daily Weather History Graph

Search for Another Location

Airport or City:

Trip Planner

Search our weather history database for the weather conditions in past years. The results will help you decide how hot, cold, wet, or windy it might be!

Date:

Astronomy

Jan. 11, 2014 Rise Set
Actual Time 7:23 AM MST 5:39 PM MST
Civil Twilight 6:57 AM MST 6:06 PM MST
Nautical Twilight 6:27 AM MST 6:35 PM MST
Astronomical Twilight 5:57 AM MST 7:05 PM MST
Moon 2:23 PM MST (1/11) 3:34 AM MST (1/11)
Length of Visible Light 11h 08m
Length of Day
10h 16m
Waxing Gibbous, 83% of the Moon is Illuminated
Jan 11
Waxing Gibbous
Jan 15
Full
Jan 23
Last Quarter
Jan 30
New
Feb 6
First Quarter

Hourly Weather History & Observations

Time (MST) Temp. Windchill Dew Point Humidity Pressure Visibility Wind Dir Wind Speed Gust Speed Precip Events Conditions
12:54 AM 37.0 °F - 21.0 °F 52% 30.10 in 10.0 mi Calm Calm - N/A   Clear
1:54 AM 35.1 °F - 21.0 °F 57% 30.12 in 10.0 mi Calm Calm - N/A   Clear
2:54 AM 33.1 °F 28.7 °F 19.9 °F 59% 30.12 in 10.0 mi ENE 4.6 mph - N/A   Clear
3:54 AM 35.1 °F 31.0 °F 21.0 °F 57% 30.11 in 10.0 mi SSW 4.6 mph - N/A   Clear
4:54 AM 33.1 °F - 21.0 °F 61% 30.12 in 10.0 mi Calm Calm - N/A   Clear
5:54 AM 32.0 °F 27.5 °F 21.0 °F 64% 30.14 in 10.0 mi NE 4.6 mph - N/A   Clear
6:54 AM 32.0 °F 28.7 °F 19.9 °F 61% 30.16 in 10.0 mi South 3.5 mph - N/A   Clear
7:54 AM 35.1 °F 32.2 °F 21.0 °F 57% 30.16 in 10.0 mi SSE 3.5 mph - N/A   Clear
8:54 AM 39.9 °F 36.7 °F 21.9 °F 49% 30.17 in 10.0 mi South 4.6 mph - N/A   Clear
9:54 AM 52.0 °F - 23.0 °F 32% 30.16 in 10.0 mi Calm Calm - N/A   Clear
10:54 AM 61.0 °F - 21.9 °F 22% 30.13 in 10.0 mi South 4.6 mph - N/A   Clear
11:54 AM 64.9 °F - 21.0 °F 19% 30.09 in 10.0 mi Calm Calm - N/A   Clear
12:54 PM 70.0 °F - 18.0 °F 14% 30.05 in 10.0 mi WSW 4.6 mph - N/A   Clear
1:54 PM 71.1 °F - 19.0 °F 14% 30.03 in 10.0 mi Variable 3.5 mph - N/A   Clear
2:54 PM 72.0 °F - 19.9 °F 14% 30.01 in 10.0 mi NW 5.8 mph - N/A   Clear
3:54 PM 72.0 °F - 21.0 °F 15% 30.00 in 10.0 mi WNW 6.9 mph - N/A   Clear
4:54 PM 70.0 °F - 21.0 °F 16% 30.01 in 10.0 mi NW 5.8 mph - N/A   Clear
5:54 PM 63.0 °F - 21.0 °F 20% 30.04 in 10.0 mi North 4.6 mph - N/A   Clear
6:54 PM 52.0 °F - 21.9 °F 31% 30.06 in 10.0 mi Calm Calm - N/A   Clear
7:54 PM 48.9 °F - 21.9 °F 35% 30.07 in 10.0 mi SE 3.5 mph - N/A   Clear
8:54 PM 48.0 °F - 21.9 °F 36% 30.07 in 10.0 mi ENE 3.5 mph - N/A   Clear
9:54 PM 46.0 °F 44.8 °F 21.9 °F 39% 30.05 in 10.0 mi East 3.5 mph - N/A   Clear
10:54 PM 44.1 °F - 21.9 °F 42% 30.02 in 10.0 mi Calm Calm - N/A   Clear
11:54 PM 42.1 °F 40.2 °F 21.9 °F 45% 30.00 in 10.0 mi SSE 3.5 mph - N/A   Clear